Find Starlink 1267

NORAD ID: 45384 Int'l Des: 2020-019 Owner: SPXS Country: US Constellation: starlink operational
LEOCIRCULAR

当前视图

正在加载3D地球...

About Starlink 1267

Starlink 1267 (NORAD 45384) is a starlink constellation satellite (v1.0) launched Mar 18, 2020 by SPXS of US. It operates in LEO, CIRCULAR orbit with a mass of 260.00 kg.

即将过境

Passes for default location (London). Set your location on the main map for personalized predictions.

高度历史

Loading altitude history...

两行轨道根数

1 45384U 20019AA 26264.00002315 .00052738 00000-0 21519-3 0 9993
2 45384 53.0367 244.5392 0005699 56.9674 177.1385 15.85605559 5911
Epoch: Sep 21, 2026 • Age: 4 hours

当前状态

高度 316.4 km
远地点 / 近地点 N/A
速度 7.72 km/s
星下点 36.04°N, 31.06°W
发射日期 Mar 18, 2020
运行时间 6.5 years
类型 internet

技术详情

分类 Payload
质量 260.00 kg
干质量 248.00 kg
长度 0.20 m
跨度 9.00 m
形状 ? Box + pan
制造商 SPXS
平台类型 Starlink
阶段状态 In Orbit
所有者/国家 SPXS/US

Most Searched